Regional Weather Roundup
Issued by NWS Cleveland, OH

Home | Current Version | Previous Version | Graphics & Text | Print | Product List | Glossary On
Versions: 1 2 3 4 5 6 7 8 9 10 11 12 13 14 15 16 17 18 19 20 21 22 23 24 25 26 27 28 29 30 31 32 33 34 35 36 37 38 39 40 41 42 43 44 45 46 47 48 49 50
000
ASUS41 KCLE 061400
RWRCLE
OHIO REGIONAL WEATHER ROUNDUP
NATIONAL WEATHER SERVICE WILMINGTON, OH
1000 AM EDT MON JUL 06 2015

NOTE: "FAIR" INDICATES FEW OR NO CLOUDS BELOW 12,000 FEET WITH NO
SIGNIFICANT WEATHER AND/OR OBSTRUCTIONS TO VISIBILITY.

OHZ001>008-015>018-024>027-034-035-043-044-061500-
   NORTHWEST OHIO

CITY           SKY/WX    TMP DP  RH WIND       PRES   REMARKS
DEFIANCE       SUNNY     73  64  73 SW5       30.08F
FINDLAY        SUNNY     73  64  73 SW6       30.07F
TOLEDO EXPRESS SUNNY     72  63  73 S5        30.07F
TOLEDO EXEC      N/A     72  62  71 MISG      30.08F
LIMA           SUNNY     72  63  73 W5        30.09F
$$

OHZ009>014-019>023-028>033-038-089-061500-
   NORTHEAST OHIO

CITY           SKY/WX    TMP DP  RH WIND       PRES   REMARKS
CLE-HOPKINS    MOSUNNY   77  60  55 VRB3      30.10S
CLE-LAKEFRONT  MOSUNNY   77  63  61 W3        30.07S
CUY CO. ARPT   MOSUNNY   81  63  54 CALM      30.09S
LORAIN-ELYRIA  SUNNY     75  62  64 CALM      30.09S
ASHTABULA      MOSUNNY   75  68  78 VRB5      30.10S
AKRON-CANTON   PTSUNNY   76  65  68 VRB5      30.10R
WOOSTER        NOT AVBL
MANSFIELD      SUNNY     74  62  66 N6        30.11S
YOUNGSTOWN     PTSUNNY   74  67  78 SE5       30.10R
$$

OHZ042-051>053-060>062-070>072-077>081-061500-
  SOUTHWEST OHIO

CITY           SKY/WX    TMP DP  RH WIND       PRES   REMARKS
CINC-COVINGTON MOSUNNY   73  65  75 SW5       30.12R
CINC-LUNKEN    SUNNY     73  67  81 S3        30.11S
HAMILTON       SUNNY     73  64  73 CALM      30.12S
DAYTON         NOT AVBL
WRIGHT-PAT AFB SUNNY     73  64  73 CALM      30.10F
DAYTON GENERAL SUNNY     74  64  71 CALM      30.10S
WILMINGTON     SUNNY     74  63  68 W7        30.12R
$$

OHZ036-037-039>041-045>050-054>059-063>069-073>076-082>088-061500-
  CENTRAL AND SOUTHEAST OHIO

CITY           SKY/WX    TMP DP  RH WIND       PRES   REMARKS
COLUMBUS       MOSUNNY   72  63  73 CALM      30.09S
OSU AIRPORT    SUNNY     75  63  66 NW7       30.09F
BOLTON FIELD   SUNNY     75  64  69 NW6       30.11R
RICKENBACK AFB NOT AVBL
NEWARK         PTSUNNY   71  63  75 E3        30.09S
MARION         SUNNY     75  61  61 NW3       30.10S
LANCASTER      MOSUNNY   71  65  81 N3        30.10R
ZANESVILLE     CLOUDY    73  66  78 SW5       30.09R HAZE
NEW PHILLY     PTSUNNY   68  67  96 CALM      30.10R FOG
$$


USA.gov is the U.S. government's official web portal to all federal, state and local government web resources and services.